Orbital Elements at Epoch 2459000.5 (2020-May-31.0) TDB
Reference: JPL 16 (heliocentric ecliptic J2000)
Element | Value | Uncertainty (1-sigma) | Units |
e | .05891845939977095 | 5.9349e-08 | |
a | 2.607151468897214 | 3.4284e-08 | au |
q | 2.453542120927941 | 1.6824e-07 | au |
i | 7.610922841062631 | 6.6778e-06 | deg |
node | 128.6394155394553 | 4.2426e-05 | deg |
peri | 67.05007722612433 | 6.9034e-05 | deg |
M | 157.7328899110263 | 5.6943e-05 | deg |
tp | 2458326.798395917954 (2018-Jul-27.29839592) | 0.00023773 | TDB |
period | 1537.615760456452 4.21 | 3.0329e-05 8.304e-08 | d yr |
n | .234128713595607 | 4.6181e-09 | deg/d |
Q | 2.760760816866488 | 3.6304e-08 | au |
|
| | Orbit Determination Parameters
Additional Information
|